Voltar ao catálogo

FENGYUN 1C DEB

AtivoSSO
NORAD 40689·DEBRIS·🇨🇳 China

Lançado May 10, 1999 de Taiyuan Satellite Launch Center

Loading…

Próximas Passagens (próximas 24 horas)

TLE

EnvelhecendoSource: Space-Track

Época: Sep 7, 2026, 13:09 UTC

1 40689U 99025EWV 26250.54807170  .00000972  00000-0  89406-3 0  9997
2 40689  99.1177 157.9734 0308729 122.3102 240.8341 13.65493723585518

Acompanhe FENGYUN 1C DEB em tempo real com AllMySat

Download on the App Store